Regional Weather Roundup
Issued by NWS

Home | Current Version | Previous Version | Graphics & Text | Print | Product List | Glossary On
Versions: 1 2 3 4 5 6 7 8 9 10 11 12 13 14 15 16 17 18 19 20 21 22 23 24 25 26 27 28 29 30 31 32 33 34 35 36 37 38 39 40 41 42 43 44 45 46 47 48 49 50
000
ASUS43 KLOT 290208
RWRIL

ILLINOIS REGIONAL WEATHER ROUNDUP
NATIONAL WEATHER SERVICE CHICAGO/ROMEOVILLE IL
900 PM CDT FRI AUG 28 2015

NOTE: "FAIR" INDICATES FEW OR NO CLOUDS BELOW 12,000 FEET WITH NO
SIGNIFICANT WEATHER AND/OR OBSTRUCTIONS TO VISIBILITY.

* THESE STATIONS ARE NOT UNDER NWS QUALITY CONTROL. THEY ALSO MAY NOT
  REPORT WEATHER SUCH AS PRECIPITATION OR FOG.

ILZ001-002-007-009-015-016-024-290300-
NORTHWEST ILLINOIS

CITY           SKY/WX    TMP DP  RH WIND       PRES   REMARKS
MOLINE         CLOUDY    69  62  78 CALM      29.99R
STERLING*      CLOUDY    66  63  88 E6        30.00R
SAVANNA*       CLOUDY    66  63  87 NE6       30.02R
$$

ILZ003-004-008-010-011-017-018-290300-
NORTH CENTRAL ILLINOIS

CITY           SKY/WX    TMP DP  RH WIND       PRES   REMARKS
ROCKFORD       CLOUDY    68  60  75 E10       30.06S
FREEPORT*      CLOUDY    64  62  93 E8        30.06R
ROCHELLE*      CLOUDY    66  62  87 E7        30.05R
DE KALB*       CLOUDY    66  62  87 E8        30.07R
PERU*          CLOUDY    71  62  73 SE10      30.04R
$$

ILZ005-006-012>014-019>023-290300-
NORTHEAST ILLINOIS

CITY           SKY/WX    TMP DP  RH WIND       PRES   REMARKS
CHICAGO-OHARE  CLOUDY    70  61  73 E6        30.08R
CHICAGO-MIDWAY CLOUDY    73  62  68 E7        30.07R
AURORA         CLOUDY    69  63  81 E9        30.06S
LANSING*       CLOUDY    69  63  80 SE5       30.08S
JOLIET*        CLOUDY    71  64  80 SE6       30.06S
WAUKEGAN       CLOUDY    63  60  90 NE5       30.08R
DUPAGE AIRPORT CLOUDY    69  60  73 E8        30.06S
KANKAKEE*      CLOUDY    68  64  86 CALM      30.08R
WHEELING       CLOUDY    68  61  78 E5        30.09R
MORRIS*        CLOUDY    69  63  81 SE8       30.04S
ROMEOVILLE*    CLOUDY    68  61  78 E6        30.07S
NORTHERLY ISL    N/A     68  64  87 SE2         N/A
$$

LMZ740>746-290300-
SOUTHERN LAKE MICHIGAN

STATION/POSITION SKY/WX   TEMP    WIND        PRES    VSBY  WAVE
                          AIR SEA DIR/SP/G                  HT/PER
                          (F)     (DEG/KT/KT) (MB)    (MI)  (FT/S)
SOUTHERN BUOY              68 69   60/  4/  6 1019.2R         1
WILMETTE HARBOR            64 58  230/  4/  4   N/A           0
HARRISON CRIB              70      90/ 10/ 10   N/A
BURNHAM HARBOR             67     140/  4/  4   N/A
BURNS HARBOR               71      CALM  /  2 1019.0R
MICHIGAN CITY              71      80/  5/  6   N/A
MICHIGAN CITY 6N           71 71  120/  4/  6   N/A           0
ST. JOSEPH                 71 71  140/  8/ 10   N/A           0
$$

ILZ025>027-034>036-040-047-049-050-058-095>099-290300-
WEST-CENTRAL ILLINOIS

CITY           SKY/WX    TMP DP  RH WIND       PRES   REMARKS
QUINCY         CLOUDY    72  62  71 S9        29.98R
GALESBURG*     CLOUDY    69  60  75 SE6       29.98R
MACOMB*        CLOUDY    70  62  75 S6        30.01R
JACKSONVILLE*  CLOUDY    72  63  71 SE8       29.99S
PITTSFIELD*    CLOUDY    72  62  71 S5        30.01R
$$

ILZ028>032-037-038-041>044-048-051>054-059>061-290300-
CENTRAL ILLINOIS

CITY           SKY/WX    TMP DP  RH WIND       PRES   REMARKS
PONTIAC        CLOUDY    67  64  90 SE6       30.05S
BLOOMINGTON    CLOUDY    69  61  76 SE9       30.05F
DECATUR        MOCLDY    68  59  73 SE6       30.05R
PEORIA         CLOUDY    73  59  61 SE7       30.00F
LACON*         CLOUDY    69  60  74 SE8       30.01S
LINCOLN*       CLOUDY    69  60  73 SE7       30.02F
SPRINGFIELD    CLOUDY    74  60  61 SE8       30.02S
TAYLORVILLE    CLOUDY    70  61  73 SE6       30.03S
$$

ILZ033-039-045-046-055>057-062-063-290300-
EAST-CENTRAL ILLINOIS

CITY           SKY/WX    TMP DP  RH WIND       PRES   REMARKS
CHAMPAIGN      MOCLDY    67  60  78 SE6       30.07R
RANTOUL*       MOCLDY    69  62  79 SE5       30.07R
MATTOON        CLOUDY    69  57  65 CALM      30.06R HAZE
PARIS*         PTCLDY    68  61  78 E3        30.08R
$$

ILZ079-100>102-290300-
SOUTHWEST ILLINOIS

CITY           SKY/WX    TMP DP  RH WIND       PRES   REMARKS
BELLEVILLE     CLOUDY    71  65  80 E6        30.00S
CAHOKIA*       CLOUDY    73  62  68 S6        30.01R
SPARTA*        MOCLDY    70  64  81 SE5       30.04R
$$

ILZ064>066-069>071-074>076-080>082-084>086-088>090-092>094-290300-
SOUTH-CENTRAL ILLINOIS

CITY           SKY/WX    TMP DP  RH WIND       PRES   REMARKS
CARBONDALE     PTCLDY    68  64  87 SE6       30.04R
CAIRO*         CLEAR     68  67  96 CALM      30.04R
EFFINGHAM*     CLOUDY    67  58  73 E3        30.07R
MARION         CLEAR     70  64  83 SE5       30.05R
MT. VERNON     PTCLDY    66  57  72 CALM      30.05R
SALEM*         MOCLDY    72  60  67 CALM      30.05R
METROPOLIS*    PTCLDY    69  68  97 CALM      30.05R
$$

ILZ067-068-072-073-078-083-087-091-290300-
SOUTHEAST ILLINOIS

CITY           SKY/WX    TMP DP  RH WIND       PRES   REMARKS
LAWRENCEVILLE  PTCLDY    66  61  84 E7        30.07R
FLORA*         PTCLDY    64  60  86 CALM      30.06R
FAIRFIELD*     PTCLDY    67  64  89 CALM      30.04S
HARRISBURG*    CLEAR     68  65  90 CALM      30.05S
ROBINSON*      PTCLDY    61  58  91 CALM      30.08R
CARMI*         PTCLDY    66  64  93 E3        30.05R
$$

ABBREVIATIONS USED IN REMARKS
   TC - TEMPERATURE IN CELSIUS
  WCI - WIND CHILL INDEX
   HX - HEAT INDEX
  VSB - VISIBILITY
$$



USA.gov is the U.S. government's official web portal to all federal, state and local government web resources and services.